World > North America > United States > Wisconsin > Sheboygan   City of Sheboygan, Wisconsin

Sheboygan, WI Hourly Weather Updates

Feedback E-mail the Weather

Quick Clicks

Sheboygan, WI Weather Maps

°F °C°F °C
Sheboygan Weather Map
UTC Time: 4/24/2024, 12:31
Your Time:

Sheboygan, WI Regional Weather

Expires:202404241300;;291941
ASUS43 KMKX 241220
RWRWI 

WISCONSIN REGIONAL WEATHER ROUNDUP
NATIONAL WEATHER SERVICE MILWAUKEE/SULLIVAN WI
700 AM CDT WED APR 24 2024

NOTE: "FAIR" INDICATES FEW OR NO CLOUDS BELOW 12,000 FEET WITH NO
SIGNIFICANT WEATHER AND/OR OBSTRUCTIONS TO VISIBILITY.


WIZ051-052-058>065-066-070>072-241300-
SOUTHEAST WISCONSIN
  
CITY           SKY/WX    TMP DP  RH WIND       PRES   REMARKS
MILWAUKEE      PTSUNNY   37  26  64 N12       30.19R WCI  29 TC   3   
6HR MIN TEMP:  37; 6HR MAX TEMP:  39;                                

WAUKESHA       PTSUNNY   30  21  69 NW12      30.20R WCI  21 TC  -1   
MILWAUKEE/TIMM CLOUDY    34  25  69 N10       30.22R WCI  26 TC   1   
RACINE         CLOUDY    38  27  64 N14G23    30.20R WCI  30 TC   3   
6HR MIN TEMP:  38; 6HR MAX TEMP:  39;                                

KENOSHA        CLOUDY    39  27  62 N10       30.19R WCI  32 TC   4   
6HR MIN TEMP:  39; 6HR MAX TEMP:  41;                                

FOND DU LAC    MOSUNNY   35  23  61 N16       30.22R WCI  25 TC   2   
6HR MIN TEMP:  34; 6HR MAX TEMP:  40;                                

SHEBOYGAN      SUNNY     31  22  69 N9G18     30.21R WCI  23 TC  -1   
6HR MIN TEMP:  30; 6HR MAX TEMP:  35;                                

WEST BEND      PTSUNNY   32  25  74 N6        30.20R WCI  26 TC   0   
JUNEAU         SUNNY     31  21  67 N10       30.22R WCI  22 TC  -1   
6HR MIN TEMP:  30; 6HR MAX TEMP:  39;                                

$$


SKY/WX - Weather  TMP - Temperature  DP - Dew Point  RH - Humidity
WIND - Wind Direction/Speed PRES - Barometric Pressure VSB - Visibility
WCI - Wind Chill Index E13G22 Wind - East Wind 13 mph/Gusts of 22 mph

Trending Headlines

Trending Entertainment Headlines

Sheboygan Radar Loop

Use the map search tool if you want to place a location marker on the radar map...

Sheboygan Quick Facts

National Two Day Weather Forecast


E-mail the Sheboygan Weather Forecast

Voice your opinion or tell us about page issues...